2024/01/16 00:00:00, 4.8, 0.3
2024/01/16 00:10:00, 4.8, 0.4
2024/01/16 00:20:00, 4.8,-0.0
2024/01/16 00:30:00, 4.7,-0.2
2024/01/16 00:40:00, 4.6, 0.1
2024/01/16 00:50:00, 4.6,-0.2
2024/01/16 01:00:00, 4.6,-0.3
2024/01/16 01:10:00, 4.6,-0.2
2024/01/16 01:20:00, 5.2,-0.5
2024/01/16 01:30:00, 5.7,-0.6
2024/01/16 01:40:00, 6.0,-0.6
2024/01/16 01:50:00, 6.0,-0.1
2024/01/16 02:00:00, 6.2,-0.7
2024/01/16 02:10:00, 6.2,-0.7
2024/01/16 02:20:00, 6.7,-1.0
2024/01/16 02:30:00, 6.8,-0.8
2024/01/16 02:40:00, 6.8,-0.8
2024/01/16 02:50:00, 6.7,-0.8
2024/01/16 03:00:00, 6.7,-0.7
2024/01/16 03:10:00, 6.6,-1.0
2024/01/16 03:20:00, 6.6,-1.1
2024/01/16 03:30:00, 6.6,-1.4
2024/01/16 03:40:00, 6.6,-1.1
2024/01/16 03:50:00, 6.6,-1.2
2024/01/16 04:00:00, 6.7,-1.2
2024/01/16 04:10:00, 6.6,-1.4
2024/01/16 04:20:00, 6.7,-1.2
2024/01/16 04:30:00, 6.9,-1.5
2024/01/16 04:40:00, 6.8,-1.3
2024/01/16 04:50:00, 6.9,-1.5
2024/01/16 05:00:00, 6.9,-1.6
2024/01/16 05:10:00, 7.4,-1.5
2024/01/16 05:20:00, 7.4,-1.7
2024/01/16 05:30:00, 7.4,-1.7
2024/01/16 05:40:00, 7.3,-1.5
2024/01/16 05:50:00, 7.3,-1.6
2024/01/16 06:00:00, 7.8,-1.6
2024/01/16 06:10:00, 7.9,-2.2
2024/01/16 06:20:00, 7.9,-1.8
2024/01/16 06:30:00, 8.0,-1.9
2024/01/16 06:40:00, 8.0,-2.2
2024/01/16 06:50:00, 8.5,-2.0
2024/01/16 07:00:00, 8.9,-1.9
2024/01/16 07:10:00, 9.5,-1.9
2024/01/16 07:20:00, 9.9,-2.0
2024/01/16 07:30:00,10.4,-1.8
2024/01/16 07:40:00,11.3,-2.0
2024/01/16 07:50:00,11.4,-1.8
2024/01/16 08:00:00,11.5,-1.9
2024/01/16 08:10:00,11.5,-1.6
2024/01/16 08:20:00,11.9,-1.5
2024/01/16 08:30:00,11.9,-1.6
2024/01/16 08:40:00,11.7,-0.8
2024/01/16 08:50:00,11.6,-1.0
2024/01/16 09:00:00,11.8,-0.4
2024/01/16 09:10:00,12.1,-0.1
2024/01/16 09:20:00,11.6,-0.3
2024/01/16 09:30:00,11.4,-0.0
2024/01/16 09:40:00,11.4,-0.0
2024/01/16 09:50:00,11.5, 0.2
2024/01/16 10:00:00,11.9, 0.3
2024/01/16 10:10:00,12.1, 0.3
2024/01/16 10:20:00,12.0, 0.2
2024/01/16 10:30:00,12.2, 0.4
2024/01/16 10:40:00,12.5,-0.2
2024/01/16 10:50:00,12.7, 0.4
2024/01/16 11:00:00,12.8, 0.2
2024/01/16 11:10:00,12.8, 0.8
2024/01/16 11:20:00,12.6, 2.5
2024/01/16 11:30:00,12.5, 1.6
2024/01/16 11:40:00,12.8, 3.3
2024/01/16 11:50:00,12.7, 3.7
2024/01/16 12:00:00,12.4, 2.2
2024/01/16 12:10:00,12.1, 1.6
2024/01/16 12:20:00, 9.9, 1.8
2024/01/16 12:30:00, 4.7, 3.9
2024/01/16 12:40:00, 4.6, 6.1
2024/01/16 12:50:00, 4.7, 3.9
2024/01/16 13:00:00, 4.8, 1.5
2024/01/16 13:10:00, 4.8, 0.9
2024/01/16 13:20:00, 4.9, 0.8
2024/01/16 13:30:00, 4.9, 0.8
2024/01/16 13:40:00, 4.9, 1.2
2024/01/16 13:50:00, 4.9, 1.8
2024/01/16 14:00:00, 4.9, 1.7
2024/01/16 14:10:00, 4.8, 1.4
2024/01/16 14:20:00, 4.9, 1.0
2024/01/16 14:30:00, 4.9, 1.9
2024/01/16 14:40:00, 4.9, 1.3
2024/01/16 14:50:00, 4.9, 1.4
2024/01/16 15:00:00, 4.9, 1.2
2024/01/16 15:10:00, 4.9, 1.1
2024/01/16 15:20:00, 4.9, 1.1
2024/01/16 15:30:00, 4.8, 1.7
2024/01/16 15:40:00, 4.9, 1.5
2024/01/16 15:50:00, 4.9, 1.1
2024/01/16 16:00:00, 4.8, 0.4
2024/01/16 16:10:00, 4.9, 0.9
2024/01/16 16:20:00, 4.9, 0.4
2024/01/16 16:30:00, 4.8, 0.5
2024/01/16 16:40:00, 4.9, 0.7
2024/01/16 16:50:00, 5.0, 0.4
2024/01/16 17:00:00, 4.9,-0.0
2024/01/16 17:10:00, 4.9,-0.3
2024/01/16 17:20:00, 5.0,-0.3
2024/01/16 17:30:00, 5.0,-0.1
2024/01/16 17:40:00, 4.9,-0.3
2024/01/16 17:50:00, 5.0,-0.2
2024/01/16 18:00:00, 4.9,-0.6
2024/01/16 18:10:00, 4.9,-0.6
2024/01/16 18:20:00, 5.0,-0.9
2024/01/16 18:30:00, 4.9,-0.9
2024/01/16 18:40:00, 4.9,-0.9
2024/01/16 18:50:00, 4.9,-0.8
2024/01/16 19:00:00, 4.9,-1.1
2024/01/16 19:10:00, 4.9,-0.9
2024/01/16 19:20:00, 4.9,-0.9
2024/01/16 19:30:00, 4.9,-0.9
2024/01/16 19:40:00, 4.9,-1.0
2024/01/16 19:50:00, 4.9,-1.1
2024/01/16 20:00:00, 4.9,-0.4
2024/01/16 20:10:00, 4.9,-0.9
2024/01/16 20:20:00, 4.9,-1.2
2024/01/16 20:30:00, 4.9,-1.4
2024/01/16 20:40:00, 4.9,-1.6
2024/01/16 20:50:00, 4.9,-0.9
2024/01/16 21:00:00, 4.9,-1.3
2024/01/16 21:10:00, 4.9,-1.4
2024/01/16 21:20:00, 4.9,-1.4
2024/01/16 21:30:00, 5.0,-1.4
2024/01/16 21:40:00, 5.0,-1.6
2024/01/16 21:50:00, 4.9,-1.6
2024/01/16 22:00:00, 4.9,-1.5
2024/01/16 22:10:00, 5.0,-1.4
2024/01/16 22:20:00, 5.0,-0.3
2024/01/16 22:30:00, 5.0,-0.6
2024/01/16 22:40:00, 5.0,-0.6
2024/01/16 22:50:00, 5.0,-0.8
2024/01/16 23:00:00, 5.0,-1.4
2024/01/16 23:10:00, 4.9,-3.1
2024/01/16 23:20:00, 4.7,-3.6
2024/01/16 23:30:00, 4.7,-3.9
2024/01/16 23:40:00, 4.7,-4.1
2024/01/16 23:50:00, 4.7,-4.6
